RH
33 22 29 46 33 19 20 26 26 26 29 37 39 40 35 39 45 44 46 45 38 30 26 26 28 30 32 32 32 33 33 36 39 40 40 40 40 42 41 45 41 43 45 46
30 25 21 21 26 28 28 29 29 29 35 37 39 37 34 42 44 41 40 44 39 34 26 25 26 29 30 30 32 33 32 34 37 42 45 43 44 45 48 52 42 45 44 45
31 29 26 25 30 27 34 32 34 32 36 37 38 38 33 38 45 42 43 43 39 32 27 26 27 28 30 30 32 31 32 33 37 41 46 46 46 47 45 45 46 48 46 45
31 29 28 31 31 30 37 37 36 40 40 41 38 42 34 40 40 42 43 44 38 33 28 26 27 28 29 29 32 33 34 36 36 42 42 40 43 43 48 51 54 50 45 46
31 36 36 36 35 34 38 39 40 44 45 48 44 44 30 36 38 35 41 44 42 35 29 27 26 24 29 30 33 36 37 38 42 42 44 47 46 52 53 50 45 45 48 49
41 35 33 38 36 36 36 33 44 58 54 46 44 36 33 36 40 35 34 41 42 38 33 29 30 32 31 32 35 40 41 42 44 43 44 44 43 42 41 42 46 53 58 59
37 42 34 33 38 39 32 42 51 35 52 40 46 42 35 31 28 28 29 33 42 42 36 33 31 31 32 32 36 44 46 45 42 41 41 38 36 38 40 46 54 56 61 62
41 39 40 30 36 36 45 40 45 33 46 52 45 48 34 30 26 33 38 43 44 44 39 36 35 35 34 37 40 44 44 43 39 34 34 37 40 49 50 54 56 60 64 66
40 37 33 28 31 36 48 51 44 44 46 42 40 29 30 26 25 28 33 36 39 39 40 37 37 34 34 37 39 40 42 39 33 35 39 42 45 47 52 54 59 66 66 58
31 34 32 31 31 33 40 34 40 46 34 33 40 39 38 31 28 26 29 32 34 34 34 33 34 34 37 41 42 38 35 33 37 40 44 42 48 51 55 60 62 63 62 65
28 28 28 28 33 34 39 41 43 42 49 45 43 30 31 35 30 30 32 34 36 37 38 39 37 42 44 44 39 35 36 38 41 44 47 50 52 55 58 63 63 63 65 67
35 30 31 26 30 32 38 40 36 47 35 54 65 53 37 33 30 32 34 33 35 36 39 41 43 45 46 43 38 38 41 44 46 48 51 54 58 60 64 66 64 62 62 60
31 27 27 25 35 39 30 32 44 50 60 60 56 39 27 35 31 34 34 39 40 40 41 42 43 47 48 41 39 42 45 47 49 52 57 61 62 64 65 63 60 60 60 62
33 38 27 36 43 43 40 32 40 37 63 41 44 36 32 36 36 42 44 46 46 43 40 41 42 46 49 44 44 46 49 50 52 55 62 65 65 65 64 62 61 61 62 62
32 24 45 43 42 44 43 37 35 35 36 39 40 39 41 43 45 48 47 44 44 41 40 41 43 45 51 47 48 50 51 52 56 60 64 64 66 68 69 65 63 63 63 62
46 37 58 46 52 53 52 46 43 44 42 40 42 41 45 48 64 49 49 45 43 44 44 44 45 46 49 47 51 52 54 56 61 64 66 65 63 63 64 65 65 64 65 65
50 56 61 64 55 52 50 47 47 47 45 41 44 42 51 52 50 52 50 49 45 47 48 51 52 52 52 50 52 55 58 62 64 68 69 64 64 66 67 64 65 68 70 63
54 59 66 79 53 50 34 46 48 43 47 56 54 55 55 56 54 56 60 57 48 48 51 56 60 58 54 55 56 59 62 64 69 73 71 68 68 68 66 68 72 72 68 66
56 64 79 75 84 42 40 49 46 48 47 53 51 55 56 57 59 54 50 54 54 58 61 66 65 56 56 56 60 62 64 69 72 70 73 69 66 70 71 77 73 70 68 69
56 62 62 80 64 52 27 43 40 42 57 55 53 56 57 59 61 57 50 57 61 60 64 67 60 55 57 59 63 67 71 75 73 69 68 67 69 74 78 73 74 66 69 84
68 77 78 91 84 65 47 44 44 54 46 58 52 57 61 66 62 57 63 62 62 67 67 58 58 58 61 64 66 72 75 74 66 68 69 71 74 78 71 67 62 73 82 94
60 79 80 90 86 58 50 54 48 52 64 54 58 61 64 61 64 64 64 66 69 71 65 56 58 62 64 65 73 76 79 69 70 74 75 76 78 71 58 64 73 79 91 97
68 54 71 66 63 46 56 54 58 56 54 59 60 62 66 66 66 67 70 70 71 74 59 58 63 65 66 69 75 80 75 73 73 79 81 83 81 70 66 74 87 96 96 96
66 64 73 67 62 64 54 57 55 56 58 59 63 66 68 69 69 72 73 73 76 71 62 62 66 68 72 73 75 77 76 75 82 88 88 85 70 72 69 76 88 96 96 96
64 64 66 68 68 60 59 57 58 60 60 63 68 68 66 70 70 72 74 75 74 72 66 67 70 74 75 77 77 74 75 83 89 90 85 67 65 71 79 83 93 97 96 96
72 62 66 62 55 59 59 59 59 60 63 66 70 65 67 69 69 71 73 74 76 72 71 70 72 77 79 80 76 76 78 87 93 95 70 68 71 80 87 95 94 91 94 93
Wind_Speed
3 5 7 10 3 3 5 4 3 2 2 3 6 9 12 8 7 9 9 10 9 9 7 6 7 6 6 4 5 5 6 4 3 1 2 1 0 1 1 2 3 3 3 4
6 5 3 4 5 3 3 3 3 3 1 3 4 12 12 5 7 10 13 11 11 7 7 7 7 7 7 6 7 6 5 5 3 2 2 2 1 2 2 2 2 2 4 4
6 1 5 4 4 4 2 3 2 4 4 1 6 8 5 2 2 3 6 5 6 12 11 8 9 8 6 8 8 8 7 6 4 3 2 1 1 1 2 2 2 3 4 4
2 2 3 3 3 4 1 1 2 2 4 3 4 7 6 5 8 4 5 7 9 10 7 6 7 8 9 9 6 6 6 5 4 5 2 3 2 2 2 2 2 4 4 5
3 2 2 3 1 1 2 4 4 3 3 3 3 3 9 5 6 8 7 6 7 8 9 10 10 13 6 5 7 6 5 5 4 4 2 2 3 2 2 2 4 4 5 5
2 1 3 2 3 4 6 5 7 5 3 2 2 4 6 4 5 8 5 5 6 7 7 7 4 3 4 5 5 4 5 4 3 2 2 4 5 3 2 3 4 4 4 5
4 3 2 3 4 3 5 5 4 5 4 6 1 2 7 5 4 5 9 9 5 5 6 7 7 6 6 6 5 3 4 3 1 1 1 2 1 1 3 4 4 6 3 3
4 4 2 4 2 5 2 6 6 4 3 4 1 5 2 3 5 5 4 3 2 1 2 4 5 3 3 3 3 4 3 2 2 3 1 1 1 2 3 4 4 4 4 5
4 2 1 4 2 2 2 2 2 6 3 2 3 5 4 7 8 8 10 10 8 7 6 5 4 2 1 2 2 2 2 4 4 2 2 3 3 4 5 7 5 4 6 6
3 2 2 1 2 4 2 5 4 3 2 4 5 4 4 5 5 7 10 9 7 6 7 5 4 2 2 4 4 6 5 4 1 1 3 3 5 5 5 5 7 7 8 8
3 3 2 2 2 6 2 0 6 4 4 4 2 6 5 2 4 6 7 8 8 8 8 7 5 6 6 5 5 4 4 2 2 4 4 5 6 6 6 6 7 8 8 9
1 5 3 3 1 1 2 4 5 6 4 1 4 8 1 3 4 4 6 6 6 6 6 5 5 4 4 3 3 2 0 2 4 5 5 6 6 7 7 7 8 9 11 10
4 1 2 5 4 2 2 3 4 5 3 6 6 7 1 2 6 6 6 6 6 6 7 6 5 2 1 2 2 1 3 5 5 5 5 6 7 7 7 9 10 10 12 12
3 3 5 6 3 1 1 3 4 5 4 4 7 4 3 6 4 4 5 4 4 5 6 6 6 4 4 3 3 4 5 4 5 6 6 7 7 8 9 10 11 12 11 13
4 2 2 3 3 1 3 4 5 6 5 6 4 7 1 2 4 1 3 4 4 5 7 7 7 7 5 5 4 4 5 6 5 6 6 7 8 7 8 10 12 12 12 13
4 1 2 2 3 3 5 7 6 4 3 7 4 7 4 3 1 3 4 5 5 5 6 8 8 8 8 6 5 5 5 6 5 6 7 8 9 9 11 12 12 13 13 14
3 4 3 4 4 6 7 4 6 4 4 5 5 5 4 2 3 4 5 5 7 7 7 8 9 8 6 5 3 5 5 5 6 6 8 9 10 11 12 13 13 13 15 15
5 4 2 3 4 1 5 2 1 4 3 2 3 3 2 2 4 7 4 3 7 8 9 9 8 6 4 1 3 4 5 5 6 7 8 9 10 11 12 13 13 14 14 15
4 5 4 3 2 7 2 1 4 3 3 6 6 3 2 2 3 5 2 1 7 8 8 8 6 2 1 3 3 4 6 6 6 8 8 9 11 12 13 13 15 15 14 14
5 7 6 2 4 5 5 2 3 3 6 6 5 3 1 3 4 5 5 7 9 9 7 7 3 1 2 4 3 5 6 6 7 7 10 11 11 11 13 14 15 13 14 14
3 3 5 3 3 10 6 3 1 3 9 5 4 2 1 2 6 5 7 7 7 6 9 3 1 2 3 4 3 6 6 7 8 9 11 11 12 12 13 13 13 13 14 13
7 7 4 3 2 8 6 3 7 5 3 4 3 2 2 5 6 7 8 8 9 9 8 2 3 4 4 4 4 6 7 7 8 9 11 12 12 11 11 14 12 14 13 13
3 7 7 10 9 4 5 2 2 3 5 3 3 1 2 4 5 7 6 8 8 8 4 2 2 5 5 5 3 6 6 7 9 10 11 12 13 12 12 13 13 11 11 10
4 3 3 2 1 4 4 3 3 3 4 4 2 1 1 4 6 7 7 7 6 5 4 2 4 6 6 6 6 6 7 7 8 9 11 12 12 14 13 10 9 9 9 10
5 5 5 6 3 3 1 4 6 4 4 3 1 1 3 4 6 6 6 7 6 6 4 3 4 5 7 6 6 6 6 7 8 8 10 12 12 12 12 10 9 10 10 12
6 7 6 6 5 4 4 7 5 6 4 3 2 3 3 6 7 5 7 6 5 6 4 4 5 6 7 6 6 6 6 6 7 8 10 12 12 10 10 10 11 15 18 20
Wind_Direction
26 89 194 207 198 116 138 168 221 238 212 171 238 267 270 206 213 216 208 206 205 197 213 194 199 181 173 175 167 168 160 168 141 149 143 88 120 316 331 5 11 30 23 14
47 222 235 127 159 156 149 167 256 282 105 167 320 276 266 189 224 211 209 205 201 179 200 199 196 187 194 185 195 194 195 183 190 147 162 151 177 245 264 299 329 21 7 0
147 232 134 134 136 131 141 174 210 237 337 72 331 293 321 33 336 277 240 191 178 188 189 198 204 200 196 207 202 202 202 193 190 173 113 61 12 340 327 329 333 345 330 317
123 351 123 91 108 118 240 298 117 71 52 262 20 286 304 337 323 313 284 196 187 186 188 189 196 207 208 216 205 214 211 205 204 174 154 186 202 225 235 249 273 301 287 294
221 98 97 94 109 122 172 66 61 64 86 16 336 91 272 345 348 342 333 242 222 204 192 196 200 212 210 180 209 215 209 220 212 181 184 203 229 239 259 263 298 302 308 303
59 344 56 96 62 65 143 75 45 52 76 359 300 142 294 335 303 309 324 302 231 210 214 228 232 164 202 195 215 211 200 221 221 196 213 220 235 239 305 312 305 296 287 293
16 17 1 73 90 42 72 60 336 348 11 225 314 99 249 306 320 297 303 307 247 210 208 231 235 215 211 213 220 205 190 214 193 128 175 202 232 294 279 280 275 295 296 289
144 317 20 353 88 169 93 144 156 242 225 276 88 238 254 307 330 331 325 331 121 213 256 279 309 306 294 276 187 199 175 204 77 89 66 12 351 279 270 270 289 282 272 266
129 278 5 47 33 80 160 157 170 103 24 39 273 297 328 3 4 12 29 42 27 16 15 12 9 58 122 134 160 180 145 98 76 67 3 318 304 316 308 304 290 271 270 280
174 99 8 1 96 38 114 155 70 13 212 267 297 284 236 350 337 9 19 21 13 20 29 17 19 44 79 76 77 76 86 102 105 344 312 303 311 312 307 308 291 286 285 275
116 96 286 46 182 178 70 41 54 113 126 174 284 273 217 265 352 9 29 33 28 32 32 22 27 39 62 73 83 95 87 75 341 315 305 307 309 309 298 281 279 278 276 271
10 133 195 194 83 200 177 183 144 123 221 89 144 272 280 25 358 33 45 37 30 43 35 43 54 66 68 82 93 100 61 316 305 304 307 304 301 291 284 276 271 273 279 284
187 20 37 353 10 3 217 172 106 105 92 195 133 263 198 77 46 39 71 35 16 8 10 12 31 41 193 200 207 317 325 319 312 308 299 294 285 287 288 289 291 289 293 291
80 112 154 185 197 164 250 171 143 118 114 186 225 273 274 356 91 55 28 11 13 22 10 358 350 311 267 265 287 303 310 306 307 311 302 298 297 290 289 288 292 296 290 291
88 142 177 246 257 290 253 234 173 193 194 176 237 213 92 162 150 62 332 355 12 3 355 334 312 300 290 273 286 298 304 314 314 313 309 295 287 280 282 292 296 295 293 290
7 105 30 320 20 5 279 250 226 227 216 261 270 277 192 154 229 347 331 319 300 310 313 309 294 286 270 254 267 295 304 310 325 308 294 296 299 299 297 297 297 300 297 296
92 119 73 273 349 325 306 248 191 192 179 172 199 233 153 154 359 315 312 300 283 294 292 295 287 285 274 242 262 293 304 315 318 307 298 298 300 299 299 300 302 303 301 295
125 98 80 244 5 10 247 329 308 223 220 184 81 123 142 219 262 280 254 274 308 292 286 289 287 289 265 290 318 313 313 308 303 294 290 294 298 300 305 305 305 298 296 300
39 114 84 109 191 288 296 196 183 169 296 185 163 164 202 327 357 310 68 282 272 272 277 267 277 267 337 325 315 318 322 316 308 298 292 299 308 306 308 307 303 301 299 302
62 66 106 94 118 219 240 164 139 105 283 189 154 174 311 18 355 258 290 308 300 302 299 295 276 198 340 326 330 324 309 307 297 297 305 306 303 301 301 295 297 300 301 300
50 24 146 154 212 284 231 192 152 103 242 153 138 101 12 231 213 255 298 302 295 288 302 306 63 342 309 313 326 316 311 306 300 301 305 303 301 297 292 293 305 304 306 302
174 142 187 88 78 283 172 71 176 204 68 113 87 101 266 257 284 295 306 305 306 310 320 350 348 322 315 323 338 314 306 291 298 300 306 305 305 303 302 308 310 306 305 301
241 185 180 176 214 230 197 220 119 125 130 133 148 205 278 303 296 301 296 308 305 307 302 273 295 309 320 319 312 298 284 305 308 311 309 310 308 301 314 314 310 307 308 304
243 159 195 85 329 220 171 74 92 114 131 144 140 48 341 284 299 295 292 298 301 301 301 312 323 316 307 309 305 277 296 300 306 307 310 306 313 318 319 310 306 310 308 306
203 131 183 269 262 77 185 187 165 143 113 113 31 239 259 271 284 272 283 292 288 284 284 286 293 295 292 301 300 301 300 306 309 312 306 321 320 317 314 311 314 313 307 316
191 189 164 231 215 163 212 176 151 140 147 182 223 288 257 227 269 281 295 284 272 279 280 288 287 288 288 300 298 299 298 305 306 310 321 324 324 316 311 317 316 315 319 331